Location: St. Louis
(38.6270°N, 90.1994°W)
Time: 12:09:39
(UTC-06:00)

Altair - Pass Details

Date: 02 December 2021
Orbit: 1501 x 1683 km, 47.2° (Epoch: 25 January)

Event Time Altitude Azimuth Distance (km) Brightness Sun altitude
Rises 22:15:48 0° 300° (WNW) 4,650 10.4 -63.9°
Enters shadow 22:18:25 - 298° (WNW) 3,801 9.8 -64.3°
Reaches altitude 10° 22:18:52 10° 298° (WNW) 3,658 - -64.4°
Maximum altitude 22:27:53 65° 219° (SW) 1,626 - -65.8°
Drops below altitude 10° 22:36:58 10° 140° (SE) 3,678 - -67.2°
Sets 22:40:03 0° 137° (SE) 4,676 - -67.6°
